Regional Weather Roundup
Issued by NWS

Home | Current Version | Previous Version | Text Only | Print | Product List | Glossary On
Versions: 1 2 3 4 5 6 7 8 9 10 11 12 13 14 15 16 17 18 19 20 21 22 23 24 25 26 27 28 29 30 31 32 33 34 35 36 37 38 39 40 41 42 43 44 45 46 47 48 49 50
000
ASUS45 KPSR 211610
RWRAZ

ARIZONA REGIONAL HOURLY WEATHER ROUNDUP
NATIONAL WEATHER SERVICE PHOENIX AZ
900 AM MST SUN SEP 21 2014

NOTE: FAIR INDICATES FEW OR NO CLOUDS BELOW 12,000 FEET WITH NO
SIGNIFICANT WEATHER AND/OR OBSTRUCTIONS TO VISIBILITY.

AZZ001>003-036-211700-
NORTHWEST ARIZONA

CITY           SKY/WX    TMP DP  RH WIND       PRES   REMARKS
BULLHEAD CITY  SUNNY     86  63  45 N13       29.91R
KINGMAN        SUNNY     79  54  41 N5        30.07S
$$

AZZ004>008-015-016-018-211700-
NORTH CENTRAL ARIZONA

CITY           SKY/WX    TMP DP  RH WIND       PRES   REMARKS
GRAND CANYON   PTSUNNY   66  55  67 SW8       30.30R
PRESCOTT       PTSUNNY   73  50  44 CALM      30.20R
FLAGSTAFF      SUNNY     64  55  72 SW6       30.33R
PAYSON         SUNNY     72  59  64 CALM      30.23S
PAGE           CLOUDY    68  60  75 CALM      30.17S
$$

AZZ009>014-017-211700-
NORTHEAST ARIZONA

CITY           SKY/WX    TMP DP  RH WIND       PRES   REMARKS
WINSLOW        SUNNY     74  56  53 CALM      30.21R
SAINT JOHNS    SUNNY     74  55  51 NE5       30.26S
SHOW LOW       SUNNY     68  54  60 SE6       30.33R
$$

AZZ023-211700-
GREATER PHOENIX AREA

CITY           SKY/WX    TMP DP  RH WIND       PRES   REMARKS
PHOENIX        MOSUNNY   85  59  41 E7        29.94S
BUCKEYE          N/A     86  55  35 E10       29.95S
GLENDALE       MOSUNNY   82  64  54 CALM      29.96S
LUKE AFB       PTSUNNY   83  60  45 VRB1      29.95R
DEER VALLEY    MOSUNNY   84  61  45 SE6       29.96S
SCOTTSDALE     MOSUNNY   85  62  46 SE6       29.98R
MESA-FALCON    MOSUNNY   82  57  42 SE6       29.96R
MESA-GATEWAY   MOSUNNY   82  63  51 SE6       29.99R
CHANDLER       PTSUNNY   82  61  47 CALM      29.96S
$$

AZZ027-028-211700-
SOUTHWEST MARICOPA COUNTY AND PINAL COUNTY

CITY           SKY/WX    TMP DP  RH WIND       PRES   REMARKS
CASA GRANDE    PTSUNNY   82  55  39 CALM      29.98S
$$

AZZ503-504-507>509-211700-
SOUTHEAST ARIZONA

CITY           SKY/WX    TMP DP  RH WIND       PRES   REMARKS
TUCSON         CLOUDY    79  64  60 CALM      30.06S
DAVIS-MONTHAN  MOSUNNY   79  64  59 SE3       30.05R
RYAN FIELD       N/A     79  68  69 W3        30.05S
NOGALES        MOSUNNY   73  66  78 CALM      30.12S
SIERRA VISTA   MOSUNNY   74  64  71 NE3       30.18S
DOUGLAS        PTSUNNY   74  63  68 CALM      30.15R
SAFFORD        MOSUNNY   79  62  56 SE13      30.09R
$$

AZZ020-021-025-026-031-211700-
SOUTHWEST ARIZONA

CITY           SKY/WX    TMP DP  RH WIND       PRES   REMARKS
YUMA           SUNNY     87  57  35 NE6       29.87R
$$

CAZ031-033-041-043-047-048-061-211700-
SOUTHERN CALIFORNIA

CITY           SKY/WX    TMP DP  RH WIND       PRES   REMARKS
DOWNTOWN L.A.  CLOUDY    69  61  75 CALM      29.99R
L.A. AIRPORT   PTSUNNY   70  61  73 NE5       30.00R
SAN DIEGO      PTSUNNY   73  58  59 NW6       29.99R
BURBANK        CLOUDY    67  58  72 N3        30.00R
ONTARIO        CLOUDY    66  60  81 SW5       30.00R
RIVERSIDE      CLOUDY    67  60  78 W5        30.01R
PALM SPRINGS   SUNNY     80  55  42 CALM      29.90R
EL CENTRO NAS  SUNNY     86  45  23 SW6       29.86R
IMPERIAL       SUNNY     83  51  33 SW6       29.86R
BLYTHE         SUNNY     85  59  41 S5        29.88R
NEEDLES        SUNNY     88  56  33 SW6       29.91R
$$

NVZ020-UTZ003-211700-
SOUTHERN NEVADA-UTAH

CITY           SKY/WX    TMP DP  RH WIND       PRES   REMARKS
LAS VEGAS      MOSUNNY   79  58  48 VRB3      29.98S
SALT LAKE CITY CLOUDY    66  51  58 S6        30.14F
$$

NMZ009-TXZ055-211700-
NEW MEXICO-WEST TEXAS

CITY           SKY/WX    TMP DP  RH WIND       PRES   REMARKS
ALBUQUERQUE    PTSUNNY   73  54  51 E18G30    30.32R
EL PASO        PTSUNNY   76  64  66 CALM      30.17R
$$


........................KEY........................
SKY/WX - SKY CONDITION/WEATHER
TMP    - TEMPERATURE IN FAHRENHEIT
DP     - DEW POINT IN FAHRENHEIT
RH     - RELATIVE HUMIDITY IN PERCENT
WIND   - DIRECTION AND SPEED IN MILES PER HOUR (MPH)
VRB    - VARIABLE WIND DIRECTION
PRES   - MEAN SEA LEVEL PRESSURE IN INCHES OF MERCURY
         F - FALLING PRESSURE   R - RISING PRESSURE
         S - STEADY PRESSURE
VSB    - VISIBILITY IN MILES
HX     - HEAT INDEX IN FAHRENHEIT
WCI    - WIND CHILL INDEX IN FAHRENHEIT
TC     - TEMPERATURE IN CELSIUS WHICH IS ALSO KNOWN AS
         TEMPERATURE IN CENTIGRADE
AFB    - AIR FORCE BASE
         LUKE AFB IS LUKE AIR FORCE BASE
         DAVIS-MONTHAN IS DAVIS-MONTHAN AIR FORCE BASE
NAS    - NAVAL AIR STATION
         EL CENTRO NAS IS EL CENTRO NAVAL AIR STATION
N/A    - NOT AVAILABLE



USA.gov is the U.S. government's official web portal to all federal, state and local government web resources and services.